Location: Alsip
(41.6689°N, 87.7387°W)
Time: 13:17:12
(UTC+00:00)

COSMOS 2441 - Pass Details

Date: 14 July 2020
Orbit: 707 x 732 km, 98.0° (Epoch: 04 August)

Event Time Altitude Azimuth Distance (km) Brightness Sun altitude
Rises 09:27:33 0° 13° (NNE) 3,122 8.6 -10.2°
Reaches altitude 10° 09:29:50 10° 14° (NNE) 2,195 7.8 -9.9°
Maximum altitude 09:34:39 82° 103° (ESE) 720 4.4 -9.2°
Drops below altitude 10° 09:39:25 10° 191° (S) 2,172 6.4 -8.5°
Enters shadow 09:40:56 - 192° (SSW) 2,787 6.9 -8.3°
